Location: Waco, TX
(31.5480°N, 97.1670°W)
Time: 17:19:36
(UTC-05:00)

ISS - Pass Details

Date: 17 August 2018
Orbit: 401 x 409 km, 51.6° (Epoch: 19 August)

Event Time Altitude Azimuth Distance (km) Brightness Sun altitude
Rises 17:58:54 0° 322° (NW) 2,315 0.5 26.7°
Reaches altitude 10° 18:01:03 10° 329° (NNW) 1,454 -0.5 26.3°
Maximum altitude 18:04:09 41° 42° (NE) 600 -3.0 25.6°
Drops below altitude 10° 18:07:15 10° 114° (ESE) 1,451 -1.5 24.9°
Sets 18:09:24 0° 122° (ESE) 2,309 -0.5 24.5°
